Regional Weather Roundup
Issued by NWS

Home | Current Version | Previous Version | Text Only | Print | Product List | Glossary Off
Versions: 1 2 3 4 5 6 7 8 9 10 11 12 13 14 15 16 17 18 19 20 21 22 23 24 25 26 27 28 29 30 31 32 33 34 35 36 37 38 39 40 41 42 43 44 45 46 47 48 49 50

178
ASUS45 KBOU 241807
RWRCO

WEATHER ROUNDUP FOR COLORADO
NATIONAL WEATHER SERVICE DENVER/BOULDER CO
1200 PM MDT TUE MAY 24 2016

NOTE: "FAIR" INDICATES FEW OR NO CLOUDS BELOW 12000 FEET WITH NO
SIGNIFICANT WEATHER AND/OR OBSTRUCTIONS TO VISIBILITY.

COZ001>005-013-030-031-241900-
...NORTHWEST COLORADO...

CITY           SKY/WX    TMP DP  RH WIND       PRES   REMARKS
CRAIG          FAIR      68  26  20 W20G28    29.90F
HAYDEN         FAIR      63  21  20 W5        29.92S
MEEKER         FAIR      68  22  17 S15G22    29.92S
MOUNT WERNER   NOT AVBL
STEAMBOAT SPGS FAIR      64  22  20 S6G18     29.93S
WALDEN         FAIR      59  16  18 S15G24    30.00S
$$

COZ006>008-011-241900-
...WEST CENTRAL VALLEYS...

CITY           SKY/WX    TMP DP  RH WIND       PRES   REMARKS
GRAND JUNCTION FAIR      71  25  17 W10       29.86F
MONTROSE       FAIR      71  21  15 W17       29.92F
EAGLE          NOT AVBL
RIFLE          FAIR      71  25  17 W18       29.88F
DELTA          FAIR      71  17  12 CALM      29.91S
NUCLA          FAIR      68  21  17 SW16G24   29.99S
$$

COZ017>023-064>068-241900-
...SOUTHWEST COLORADO...

CITY           SKY/WX    TMP DP  RH WIND       PRES   REMARKS
DURANGO        FAIR      66  20  17 SW14G23   30.05S
CORTEZ         FAIR      70  24  17 SW23G29   30.00R
PAGOSA SPRINGS FAIR      61  18  19 SW9G16    30.10F
TELLURIDE      FAIR      56  16  20 S9G23     30.10S
WOLF CREEK PAS FAIR      37  19  48 S24G44    30.27S
$$

COZ009-010-012-014-032>034-037-058>063-241900-
...CENTRAL COLORADO...

CITY           SKY/WX    TMP DP  RH WIND       PRES   REMARKS
ASPEN          FAIR      65  15  14 VRB3      29.97F
BUENA VISTA    FAIR      66  15  13 SE13G26   30.01F
COPPER MTN     NOT AVBL
BERTHOUD PASS  FAIR      36  28  75 SE21G28   30.24S
COTTONWOOD PAS FAIR      61  12  15 E15G23    30.11S
GUNNISON       FAIR      61  18  18 W12       30.03F
KREMMLING      FAIR      63  16  16 CALM      29.97F
LEADVILLE      FAIR      55   8  15 S15G22    30.08F
MONARCH PASS   FAIR      43  14  31 SW26G37   30.32S
SALIDA         FAIR      68  17  14 SE17G23   30.07F
SUNLIGHT       FAIR      48  21  34 CALM      30.16S
WILKERSON PASS FAIR      54  19  26 SW6       30.23S
$$

COZ069>075-241900-
...SAN LUIS VALLEY/SANGRE DE CRISTO MOUNTAINS...

CITY           SKY/WX    TMP DP  RH WIND       PRES   REMARKS
ALAMOSA        FAIR      68  19  15 S23G31    30.04S
LA VETA PASS   FAIR      55  23  28 S9G18     30.20S
SAGUACHE       FAIR      63  21  20 S12       30.06F
$$

COZ035-036-038>040-241900-
...NORTHERN COLORADO FRONT RANGE...

CITY           SKY/WX    TMP DP  RH WIND       PRES   REMARKS
DENVER INTL AP PTSUNNY   70  47  43 E16G25    29.93F
DMNS CITY PARK   N/A     70  45  40 SE14      29.92F
AURORA         PTSUNNY   69  47  45 SE14G21   29.95F
FRONT RANGE AP PTSUNNY   68  45  42 SE15G24   29.95F
ERIE MUNI ARPT FAIR      69  46  43 SE7G16    29.94F
BOULDER MUN AP PTSUNNY   63  45  51 CALM      29.95F
CENTENNIAL     FAIR      65  43  44 E10       29.95F
BROOMFIELD     PTSUNNY   66  45  45 E7        29.96F
FORT COLLINS   FAIR      66  48  52 S7        29.96F
LONGMONT       PTSUNNY   68  48  48 SE3       29.96F
$$

COZ041-046-047-076>085-087-088-241900-
...PIKES PEAK/PALMER DIVIDE AND SOUTHERN FOOTHILLS...

CITY           SKY/WX    TMP DP  RH WIND       PRES   REMARKS
COLO. SPRINGS  FAIR      68  42  38 SE13      29.99F
A. F. ACADEMY  FAIR      66  43  42 S12       29.99F
SCHRIEVER AFB  NOT AVBL
ELLICOTT       FAIR     N/A N/A N/A SE13G18   29.98F
FALCON         FAIR      65  42  42 SE15G22   30.03F
FORT CARSON    FAIR      66  46  47 SE10G16   29.96F
LIMON          PTSUNNY   67  54  63 SE22      29.97F
MONUMENT HILL  PTSUNNY   61  43  51 SE14G21   30.03F
TRINIDAD       FAIR      71  41  33 E9        29.96F
$$

COZ042>045-048>051-090-091-241900-
...NORTHEAST COLORADO...

CITY           SKY/WX    TMP DP  RH WIND       PRES   REMARKS
GREELEY ARPT   PTSUNNY   70  48  46 S14       29.95F
AKRON          FAIR      70  46  42 SE24G32   29.94F
BURLINGTON     CLOUDY    69  55  60 SE18G25   29.93F
WRAY           FAIR      75  45  33 E22G29    29.92F
STERLING       FAIR      72  46  40 SE17G23   29.93S
HOLYOKE        FAIR      77  50  38 SE21      29.93F
FORT MORGAN    FAIR      70  46  40 SE15G26   29.94F
$$

COZ086-089-092>099-241900-
...SOUTHEAST COLORADO...

CITY           SKY/WX    TMP DP  RH WIND       PRES   REMARKS
PUEBLO         FAIR      71  46  40 VRB5      29.92F
LA JUNTA       FAIR      75  49  39 MISG      29.91F
LAMAR          FAIR      75  59  57 MISG      29.86F
SPRINGFIELD      N/A     75  51  43 VRB5      29.90F
$$




USA.gov is the U.S. government's official web portal to all federal, state and local government web resources and services.